TimeCDT,TemperatureF,Dew PointF,Humidity,Sea Level PressureIn,VisibilityMPH,Wind Direction,Wind SpeedMPH,Gust SpeedMPH,PrecipitationIn,Events,Conditions,WindDirDegrees,DateUTC
12:58 AM,75.9,71.6,86,30.15,10.0,NW,5.8,-,N/A,,Clear,320,2013-07-18 05:58:00
1:58 AM,74.5,70.7,88,30.13,10.0,NNW,3.5,-,N/A,,Clear,330,2013-07-18 06:58:00
2:58 AM,73.6,69.6,87,30.10,10.0,NNE,2.3,-,N/A,,Clear,20,2013-07-18 07:58:00
3:58 AM,72.5,69.8,91,30.09,10.0,Calm,Calm,-,N/A,,Clear,0,2013-07-18 08:58:00
4:58 AM,71.2,69.6,95,30.12,6.0,WNW,2.3,-,N/A,,Clear,300,2013-07-18 09:58:00
5:23 AM,71.6,69.8,94,30.12,2.5,NNW,5.8,-,N/A,,Clear,340,2013-07-18 10:23:00
5:31 AM,71.6,69.8,94,30.12,3.0,North,3.5,-,N/A,,Clear,360,2013-07-18 10:31:00
5:41 AM,71.6,69.8,94,30.11,2.5,North,6.9,-,N/A,,Clear,10,2013-07-18 10:41:00
5:46 AM,71.6,69.8,94,30.11,2.0,North,4.6,-,N/A,,Clear,10,2013-07-18 10:46:00
5:51 AM,71.6,69.8,94,30.11,1.8,NNE,4.6,-,N/A,,Clear,20,2013-07-18 10:51:00
5:58 AM,70.7,69.3,95,30.12,1.5,NE,3.5,-,N/A,,Clear,40,2013-07-18 10:58:00
6:03 AM,71.6,69.8,94,30.11,1.2,NNE,3.5,-,N/A,,Clear,30,2013-07-18 11:03:00
6:13 AM,69.8,69.8,100,30.12,1.5,NNE,3.5,-,N/A,,Clear,30,2013-07-18 11:13:00
6:48 AM,71.6,69.8,94,30.12,2.0,North,4.6,-,N/A,,Clear,360,2013-07-18 11:48:00
6:53 AM,71.6,69.8,94,30.12,2.5,North,5.8,-,N/A,,Clear,10,2013-07-18 11:53:00
6:58 AM,71.6,69.4,93,30.12,2.0,NNE,5.8,-,N/A,,Clear,20,2013-07-18 11:58:00
7:03 AM,71.6,69.8,94,30.12,1.8,NNE,5.8,-,N/A,,Clear,20,2013-07-18 12:03:00
7:18 AM,71.6,69.8,94,30.12,1.2,NE,3.5,-,N/A,,Clear,40,2013-07-18 12:18:00
7:28 AM,71.6,69.8,94,30.13,1.0,ENE,3.5,-,N/A,,Clear,60,2013-07-18 12:28:00
7:43 AM,73.4,69.8,88,30.13,1.2,NE,4.6,-,N/A,,Clear,40,2013-07-18 12:43:00
7:58 AM,73.9,69.6,86,30.14,1.2,NE,5.8,-,N/A,,Haze,50,2013-07-18 12:58:00
8:03 AM,75.2,69.8,83,30.14,1.0,NE,5.8,-,N/A,,Haze,50,2013-07-18 13:03:00
8:54 AM,78.8,69.8,74,30.13,1.2,NE,4.6,-,N/A,,Haze,40,2013-07-18 13:54:00
8:55 AM,79.7,70.2,73,30.13,10.0,NE,4.6,-,N/A,,Scattered Clouds,50,2013-07-18 13:55:00
9:55 AM,82.9,71.4,68,30.14,10.0,Calm,Calm,-,N/A,,Scattered Clouds,0,2013-07-18 14:55:00
10:56 AM,86.4,72.1,62,30.14,10.0,Variable,3.5,-,N/A,,Scattered Clouds,0,2013-07-18 15:56:00
11:55 AM,89.4,71.8,56,30.13,10.0,Variable,3.5,-,N/A,,Mostly Cloudy,0,2013-07-18 16:55:00
12:41 PM,87.8,73.4,62,30.11,10.0,North,6.9,-,N/A,Thunderstorm,Thunderstorm,350,2013-07-18 17:41:00
12:44 PM,86.0,73.4,66,30.11,10.0,North,6.9,-,N/A,,Mostly Cloudy,360,2013-07-18 17:44:00
12:56 PM,87.4,72.3,61,30.10,10.0,NNW,6.9,-,N/A,Thunderstorm,Mostly Cloudy,340,2013-07-18 17:56:00
12:58 PM,87.4,72.3,61,30.10,10.0,Variable,5.8,-,N/A,,Scattered Clouds,0,2013-07-18 17:58:00
1:12 PM,84.2,73.4,70,30.10,10.0,WNW,8.1,-,N/A,Thunderstorm,Thunderstorm,300,2013-07-18 18:12:00
1:36 PM,80.6,71.6,74,30.08,6.0,North,8.1,-,N/A,Rain-Thunderstorm,Light Thunderstorms and Rain,360,2013-07-18 18:36:00
1:56 PM,78.3,72.9,83,30.09,7.0,West,6.9,-,0.11,Rain-Thunderstorm,Light Thunderstorms and Rain,260,2013-07-18 18:56:00
2:21 PM,75.2,68.0,78,30.09,0.5,South,20.7,33.4,N/A,Rain-Thunderstorm,Heavy Thunderstorms and Rain,190,2013-07-18 19:21:00
2:28 PM,73.4,68.0,83,30.07,0.5,SSW,25.3,36.8,N/A,Rain-Thunderstorm,Heavy Thunderstorms and Rain,200,2013-07-18 19:28:00
2:48 PM,75.2,66.2,73,30.07,5.0,WSW,9.2,28.8,N/A,Rain-Thunderstorm,Light Thunderstorms and Rain,240,2013-07-18 19:48:00
2:55 PM,74.8,70.3,86,30.09,5.0,WNW,9.2,16.1,0.81,Rain-Thunderstorm,Light Thunderstorms and Rain,290,2013-07-18 19:55:00
3:23 PM,75.2,71.6,89,30.07,7.0,North,6.9,-,N/A,Thunderstorm,Thunderstorm,360,2013-07-18 20:23:00
3:55 PM,78.1,73.0,84,30.06,10.0,North,11.5,-,N/A,Thunderstorm,Thunderstorm,360,2013-07-18 20:55:00
4:17 PM,77.0,71.6,83,30.07,10.0,East,6.9,-,N/A,Rain,Light Rain Showers,80,2013-07-18 21:17:00
4:55 PM,76.3,74.1,93,29.59,10.0,Variable,2.3,-,0.02,,Mostly Cloudy,0,2013-07-18 21:55:00
5:55 PM,79.5,74.5,84,30.04,10.0,SSE,2.3,-,N/A,,Mostly Cloudy,150,2013-07-18 22:55:00
6:55 PM,82.4,71.6,70,30.04,10.0,SE,3.5,-,N/A,,Mostly Cloudy,140,2013-07-18 23:55:00
7:55 PM,80.1,73.6,81,30.06,10.0,South,4.6,-,N/A,,Mostly Cloudy,180,2013-07-19 00:55:00
8:55 PM,77.5,74.8,91,30.08,10.0,WNW,1.2,-,N/A,,Mostly Cloudy,300,2013-07-19 01:55:00
9:19 PM,77.0,75.2,94,30.08,10.0,NNW,2.3,-,N/A,,Mostly Cloudy,330,2013-07-19 02:19:00
9:55 PM,76.5,75.0,95,30.10,10.0,Calm,Calm,-,N/A,,Mostly Cloudy,0,2013-07-19 02:55:00
10:55 PM,75.0,74.8,99,30.10,10.0,North,2.3,-,N/A,,Mostly Cloudy,350,2013-07-19 03:55:00
11:55 PM,74.1,73.9,99,30.10,10.0,NW,1.2,-,N/A,,Scattered Clouds,310,2013-07-19 04:55:00